Regional Weather Roundup
Issued by NWS

Home | Current Version | Previous Version | Graphics & Text | Print | Product List | Glossary On
Versions: 1 2 3 4 5 6 7 8 9 10 11 12 13 14 15 16 17 18 19 20 21 22 23 24 25 26 27 28 29 30 31 32 33 34 35 36 37 38 39 40 41 42 43 44 45 46 47 48 49 50
365
ASUS43 KBIS 071410
RWRND

NORTH DAKOTA REGIONAL WEATHER ROUNDUP
NATIONAL WEATHER SERVICE BISMARCK ND
800 AM CST WED DEC 07 2016

NOTE: "FAIR" INDICATES FEW OR NO CLOUDS BELOW 12,000 FEET WITH NO
SIGNIFICANT WEATHER AND/OR OBSTRUCTIONS TO VISIBILITY.


NDZ001>003-009>011-017-071500-
NORTHWEST NORTH DAKOTA

CITY           SKY/WX    TMP DP  RH WIND       PRES   REMARKS
WILLISTON      CLOUDY    -1  -9  68 NW14G21   30.34R WCI -20
MINOT          LGT SNOW   5   0  79 W36G44    30.14R WCI -21
MINOT AFB      LGT SNOW   3  -1  82 NW33G45   30.12R VSB 3/4 WCI -22
$$

NDZ018>021-031>035-040>046-071500-
SOUTHWEST NORTH DAKOTA

CITY           SKY/WX    TMP DP  RH WIND       PRES   REMARKS
BISMARCK       CLOUDY     6   0  76 NW23G32   30.20R WCI -15
DICKINSON      MIX PCPN   0  -5  79 NW30G37   30.21R WCI -26
GARRISON         N/A      1  -4  79 NW31G38   30.16R WCI -25
HETTINGER ARPT CLOUDY     3  -3  76 NW23G31   30.25R WCI -19
$$

NDZ004>008-012>016-024-026-027-054-071500-
NORTHEAST NORTH DAKOTA

CITY           SKY/WX    TMP DP  RH WIND       PRES   REMARKS
GRAND FORKS    LGT SNOW  15  10  80 NW26G33   29.91R BLWGSNOWWCI  -4
GRND FRKS AFB  LGT SNOW  14   9  79 NW26G33   29.91R WCI  -6
DEVILS LAKE    LGT SNOW   9   4  80 NW31G41   29.96R WCI -14
$$

NDZ022-023-025-028>030-036>039-047>053-071500-
SOUTHEAST NORTH DAKOTA

CITY           SKY/WX    TMP DP  RH WIND       PRES   REMARKS
FARGO          CLOUDY    14   6  70 W23G36    29.98R WCI  -5
JAMESTOWN      LGT SNOW   9   5  84 NW29G43   30.03R FOG     WCI -13
$$





USA.gov is the U.S. government's official web portal to all federal, state and local government web resources and services.